User: anonymous   Login
Location: Unspecified
(0.0000°N, 0.0000°E)
Time: 01:15:04
(UTC+00:00)
Language:

Saudisat 1A - Orbit

View from above orbital plane
View from above orbital plane
View from above satellite
View from above satellite

Ground track
Ground track

The orbit data is extracted from the following two-line orbital elements,

1 26546U 00057B   19109.27957079  .00000047  00000-0  20945-4 0  9996
2 26546  64.5557  34.2440 0041281 297.4901  62.2015 14.90861673  6694
Epoch (UTC): 19 April 2019 06:42:34
Eccentricity: 0.0041281
inclination: 64.5557°
perigee height: 566 km
apogee height: 624 km
right ascension of ascending node: 34.2440°
argument of perigee: 297.4901°
revolutions per day: 14.90861673
mean anomaly at epoch: 62.2015°
orbit number at epoch: 669

The dashed part of the orbit path shows where the satellite is in the earth's shadow,  

DLR